Flag for U.S.A. Weather past 2 weeks in Ocala, Florida, U.S.A.

Now
72 °F

Passing clouds.


Feels Like: 67 °F
Forecast: 70 / 84 °F
Wind: No wind

Location: Ocala Municipal

Current Time: Sep 17, 2014 at 3:49:14 AM

Latest Report: Sep 17, 2014 at 3:35 AM


Visibility: 10 mi

Pressure: 29.94 "Hg

Humidity: 94%

Dew point: 70 °F

Location of OcalaLocation

Historic Weather in Ocala — Graph

°F

Ocala temperature yesterday

Maximum temperature yesterday: 81 °F (at 12:50 PM)
Minimum temperature yesterday: 72 °F (at 5:55 AM)
Average temperature yesterday: 74 °F

Past Weeks' High & Low Weather Summary

 TemperatureHumidityPressure
High93 °F (Sep 2, 2:50 PM)100% (Sep 6, 4:35 AM)30.18 "Hg (Sep 6, 4:35 AM)
Low70 °F (Sep 4, 6:50 AM)46% (Sep 3, 3:50 PM)29.95 "Hg (Sep 12, 5:50 PM)
Average76 °F85%30.05 "Hg
* Reported Sep 2 2:35 AM — Sep 17 2:35 AM, Ocala, Weather by CustomWeather, © 2014

Note: Actual official high and low records may vary slightly from our data, if they occured in-between our weather recording intervals... More about our weather records

Advertising

Ocala weather history for previous 24 hours

 ConditionsComfort  
Time TempWeatherWind HumidityBarometerVisibility
2:35 AM
Sep 17
72 °FClear.5 mph94%29.96 "Hg10 mi
1:55 AM72 °FClear.No wind94%29.96 "Hg10 mi
1:35 AM72 °FClear.No wind94%29.96 "Hg10 mi
1:15 AM72 °FClear.No wind94%29.97 "Hg10 mi
12:55 AM72 °FClear.3 mph94%29.97 "Hg10 mi
12:35 AM72 °FClear.5 mph94%29.98 "Hg10 mi
12:15 AM72 °FClear.3 mph94%29.98 "Hg10 mi
11:55 PM
Sep 16
72 °FClear.5 mph94%29.99 "Hg10 mi
11:35 PM73 °FClear.3 mph89%29.99 "Hg10 mi
11:15 PM73 °FClear.5 mph89%29.99 "Hg10 mi
10:55 PM73 °FClear.3 mph94%29.99 "Hg10 mi
10:35 PM73 °FClear.3 mph94%30.00 "Hg10 mi
10:15 PM73 °FClear.5 mph94%30.00 "Hg10 mi
9:55 PM73 °FClear.5 mph94%30.00 "Hg10 mi
9:35 PM73 °FClear.6 mph94%30.00 "Hg10 mi
9:15 PM73 °FClear.6 mph94%30.00 "Hg10 mi
8:55 PM73 °FClear.5 mph94%30.01 "Hg10 mi
8:35 PM73 °FClear.3 mph89%30.01 "Hg10 mi
8:15 PM73 °FPassing clouds.3 mph89%30.01 "Hg10 mi
6:50 PM75 °FPartly sunny.5 mph89%30.01 "Hg10 mi
5:50 PM73 °FScattered clouds.3 mph94%29.99 "Hg10 mi
4:50 PM73 °FScattered clouds.3 mph89%30.00 "Hg10 mi
3:50 PM75 °FPartly sunny.No wind83%30.02 "Hg10 mi
2:50 PM75 °FPartly sunny.6 mph83%30.05 "Hg10 mi
1:50 PM81 °FPartly sunny.12 mph79%30.05 "Hg10 mi
12:50 PM81 °FScattered clouds.5 mph74%30.06 "Hg10 mi
11:50 AM79 °FScattered clouds.5 mph79%30.09 "Hg10 mi
10:50 AM77 °FPartly sunny.5 mph83%30.10 "Hg10 mi
9:50 AM73 °FPartly sunny.No wind94%30.10 "Hg10 mi
8:50 AM73 °FPartly sunny.No wind89%30.09 "Hg10 mi
7:50 AM72 °FPassing clouds.No wind94%30.07 "Hg10 mi
6:50 AM72 °FPassing clouds.No wind88%30.08 "Hg10 mi
6:35 AM72 °FClear.No wind88%30.08 "Hg10 mi
6:15 AM72 °FClear.No wind88%30.08 "Hg10 mi
5:55 AM72 °FClear.5 mph88%30.09 "Hg10 mi
5:35 AM73 °FClear.3 mph83%30.09 "Hg10 mi
5:15 AM73 °FClear.6 mph89%30.10 "Hg10 mi
4:55 AM73 °FClear.5 mph89%30.10 "Hg10 mi
4:35 AM73 °FClear.No wind94%30.09 "Hg10 mi
4:15 AM73 °FClear.No wind94%30.10 "Hg10 mi
3:55 AM73 °FClear.No wind94%30.10 "Hg9 mi
3:35 AM73 °FClear.No wind94%30.11 "Hg10 mi
3:15 AM73 °FClear.No wind94%30.11 "Hg9 mi
Weather by CustomWeather, © 2014

See weather overviewHow to use our weather pages